Time,TemperatureF,DewpointF,PressureIn,WindDirection,WindDirectionDegrees,WindSpeedMPH,WindSpeedGustMPH,Humidity,HourlyPrecipIn,Conditions,Clouds,dailyrainin,SoftwareType,DateUTC
2013-01-25 00:10:00,16.9,2.0,30.40,NW,315,14.0,25.0,53,0.00,,,0.00,weatherlink.com 1.10,2013-01-25 05:10:00,
2013-01-25 00:25:00,16.6,2.0,30.40,NW,319,19.0,22.0,52,0.00,,,0.00,weatherlink.com 1.10,2013-01-25 05:25:00,
2013-01-25 00:41:00,16.5,2.0,30.40,NW,322,18.0,23.0,52,0.00,,,0.00,weatherlink.com 1.10,2013-01-25 05:41:00,
2013-01-25 00:56:00,16.5,1.0,30.40,NNW,342,9.0,20.0,51,0.00,,,0.00,weatherlink.com 1.10,2013-01-25 05:56:00,
2013-01-25 01:11:00,16.5,2.0,30.39,North,349,10.0,20.0,52,0.00,,,0.00,weatherlink.com 1.10,2013-01-25 06:11:00,
2013-01-25 01:26:00,16.3,2.0,30.39,NNW,339,15.0,26.0,53,0.00,,,0.00,weatherlink.com 1.10,2013-01-25 06:26:00,
2013-01-25 01:41:00,15.7,3.0,30.40,NE,34,11.0,11.0,58,0.00,,,0.00,weatherlink.com 1.10,2013-01-25 06:41:00,
2013-01-25 01:56:00,15.4,4.0,30.40,ENE,67,6.0,10.0,62,0.00,,,0.00,weatherlink.com 1.10,2013-01-25 06:56:00,
2013-01-25 02:11:00,15.1,3.0,30.41,NE,53,6.0,7.0,60,0.00,,,0.00,weatherlink.com 1.10,2013-01-25 07:11:00,
2013-01-25 02:26:00,15.3,3.0,30.41,WNW,298,5.0,9.0,59,0.00,,,0.00,weatherlink.com 1.10,2013-01-25 07:26:00,
2013-01-25 02:41:00,14.9,2.0,30.42,NNW,333,12.0,12.0,57,0.00,,,0.00,weatherlink.com 1.10,2013-01-25 07:41:00,
2013-01-25 02:56:00,15.4,2.0,30.41,North,349,16.0,19.0,56,0.00,,,0.00,weatherlink.com 1.10,2013-01-25 07:56:00,
2013-01-25 03:11:00,15.4,2.0,30.41,NNW,337,13.0,20.0,56,0.00,,,0.00,weatherlink.com 1.10,2013-01-25 08:11:00,
2013-01-25 03:26:00,15.2,3.0,30.41,NNW,345,18.0,24.0,58,0.00,,,0.00,weatherlink.com 1.10,2013-01-25 08:26:00,
2013-01-25 03:41:00,14.4,3.0,30.41,NE,36,7.0,21.0,60,0.00,,,0.00,weatherlink.com 1.10,2013-01-25 08:41:00,
2013-01-25 03:56:00,14.1,3.0,30.41,NNE,29,8.0,9.0,62,0.00,,,0.00,weatherlink.com 1.10,2013-01-25 08:56:00,
2013-01-25 04:12:00,14.1,4.0,30.42,North,357,8.0,9.0,63,0.00,,,0.00,weatherlink.com 1.10,2013-01-25 09:12:00,
2013-01-25 04:27:00,13.6,3.0,30.42,NE,46,9.0,13.0,62,0.00,,,0.00,weatherlink.com 1.10,2013-01-25 09:27:00,
2013-01-25 04:42:00,12.6,3.0,30.42,NE,49,8.0,12.0,65,0.00,,,0.00,weatherlink.com 1.10,2013-01-25 09:42:00,
2013-01-25 04:57:00,12.0,3.0,30.42,NNE,31,10.0,13.0,67,0.00,,,0.00,weatherlink.com 1.10,2013-01-25 09:57:00,
2013-01-25 05:12:00,11.7,3.0,30.41,NNE,23,10.0,13.0,69,0.00,,,0.00,weatherlink.com 1.10,2013-01-25 10:12:00,
2013-01-25 05:27:00,11.3,3.0,30.42,North,8,5.0,11.0,69,0.00,,,0.00,weatherlink.com 1.10,2013-01-25 10:27:00,
2013-01-25 05:42:00,10.6,2.0,30.42,NE,49,6.0,10.0,69,0.00,,,0.00,weatherlink.com 1.10,2013-01-25 10:42:00,
2013-01-25 05:57:00,9.8,2.0,30.43,NE,50,8.0,9.0,70,0.00,,,0.00,weatherlink.com 1.10,2013-01-25 10:57:00,
2013-01-25 06:12:00,9.6,2.0,30.43,NE,41,8.0,9.0,72,0.00,,,0.00,weatherlink.com 1.10,2013-01-25 11:12:00,
2013-01-25 06:27:00,9.0,1.0,30.43,ENE,73,5.0,8.0,71,0.00,,,0.00,weatherlink.com 1.10,2013-01-25 11:27:00,
2013-01-25 06:42:00,8.6,1.0,30.45,North,349,0.0,3.0,70,0.00,,,0.00,weatherlink.com 1.10,2013-01-25 11:42:00,
2013-01-25 06:57:00,8.7,1.0,30.45,ENE,70,4.0,6.0,71,0.00,,,0.00,weatherlink.com 1.10,2013-01-25 11:57:00,
2013-01-25 07:12:00,8.4,1.0,30.45,North,11,6.0,6.0,70,0.00,,,0.00,weatherlink.com 1.10,2013-01-25 12:12:00,
2013-01-25 07:28:00,8.4,1.0,30.46,NNE,31,6.0,9.0,70,0.00,,,0.00,weatherlink.com 1.10,2013-01-25 12:28:00,
2013-01-25 07:43:00,8.6,1.0,30.46,ENE,63,5.0,8.0,70,0.00,,,0.00,weatherlink.com 1.10,2013-01-25 12:43:00,
2013-01-25 07:58:00,8.6,1.0,30.46,East,82,4.0,6.0,71,0.00,,,0.00,weatherlink.com 1.10,2013-01-25 12:58:00,
2013-01-25 08:13:00,8.5,1.0,30.45,NE,49,5.0,7.0,70,0.00,,,0.00,weatherlink.com 1.10,2013-01-25 13:13:00,
2013-01-25 08:28:00,8.7,0.0,30.45,ENE,57,3.0,8.0,69,0.00,,,0.00,weatherlink.com 1.10,2013-01-25 13:28:00,
2013-01-25 08:43:00,9.0,1.0,30.46,North,358,10.0,11.0,70,0.00,,,0.00,weatherlink.com 1.10,2013-01-25 13:43:00,
2013-01-25 08:58:00,9.4,1.0,30.46,North,8,7.0,12.0,69,0.00,,,0.00,weatherlink.com 1.10,2013-01-25 13:58:00,
2013-01-25 09:13:00,9.5,1.0,30.45,North,356,7.0,12.0,69,0.00,,,0.00,weatherlink.com 1.10,2013-01-25 14:13:00,
2013-01-25 09:28:00,10.0,2.0,30.45,NNE,15,4.0,10.0,69,0.00,,,0.00,weatherlink.com 1.10,2013-01-25 14:28:00,
2013-01-25 09:43:00,10.6,3.0,30.45,NE,49,7.0,10.0,70,0.00,,,0.00,weatherlink.com 1.10,2013-01-25 14:43:00,
2013-01-25 09:58:00,11.0,2.0,30.45,North,352,3.0,6.0,66,0.00,,,0.00,weatherlink.com 1.10,2013-01-25 14:58:00,
2013-01-25 10:13:00,11.5,2.0,30.44,NNE,23,3.0,3.0,65,0.00,,,0.00,weatherlink.com 1.10,2013-01-25 15:13:00,
2013-01-25 10:28:00,11.9,3.0,30.43,NNW,330,0.0,6.0,66,0.00,,,0.00,weatherlink.com 1.10,2013-01-25 15:28:00,
2013-01-25 10:44:00,12.4,3.0,30.43,NW,316,1.0,6.0,66,0.00,,,0.00,weatherlink.com 1.10,2013-01-25 15:44:00,
2013-01-25 10:59:00,14.4,4.0,30.42,WNW,302,1.0,2.0,64,0.00,,,0.00,weatherlink.com 1.10,2013-01-25 15:59:00,
2013-01-25 11:14:00,13.8,3.0,30.40,ESE,122,0.0,3.0,63,0.00,,,0.00,weatherlink.com 1.10,2013-01-25 16:14:00,
2013-01-25 11:29:00,13.7,3.0,30.38,WNW,290,3.0,5.0,62,0.00,,,0.00,weatherlink.com 1.10,2013-01-25 16:29:00,
2013-01-25 11:44:00,14.3,4.0,30.38,WNW,285,0.0,5.0,65,0.00,,,0.00,weatherlink.com 1.10,2013-01-25 16:44:00,
2013-01-25 11:59:00,15.4,4.0,30.36,West,273,0.0,3.0,62,0.00,,,0.00,weatherlink.com 1.10,2013-01-25 16:59:00,
2013-01-25 12:14:00,17.4,5.0,30.35,SW,217,0.0,2.0,58,0.00,,,0.00,weatherlink.com 1.10,2013-01-25 17:14:00,
2013-01-25 12:29:00,18.3,5.0,30.33,North,7,1.0,1.0,57,0.00,,,0.00,weatherlink.com 1.10,2013-01-25 17:29:00,
2013-01-25 12:44:00,17.7,5.0,30.32,WSW,245,0.0,1.0,59,0.00,,,0.00,weatherlink.com 1.10,2013-01-25 17:44:00,
2013-01-25 12:59:00,19.3,6.0,30.31,ENE,58,0.0,1.0,57,0.00,,,0.00,weatherlink.com 1.10,2013-01-25 17:59:00,
2013-01-25 13:14:00,19.6,5.0,30.30,SW,217,3.0,3.0,54,0.00,,,0.00,weatherlink.com 1.10,2013-01-25 18:14:00,
2013-01-25 13:29:00,18.5,5.0,30.29,SSW,203,0.0,7.0,55,0.00,,,0.00,weatherlink.com 1.10,2013-01-25 18:29:00,
2013-01-25 13:44:00,18.8,5.0,30.28,South,180,5.0,6.0,54,0.00,,,0.00,weatherlink.com 1.10,2013-01-25 18:44:00,
2013-01-25 14:00:00,18.6,4.0,30.28,WSW,258,3.0,6.0,54,0.00,,,0.00,weatherlink.com 1.10,2013-01-25 19:00:00,
2013-01-25 14:15:00,18.8,4.0,30.27,SE,129,1.0,4.0,53,0.00,,,0.00,weatherlink.com 1.10,2013-01-25 19:15:00,
2013-01-25 14:30:00,18.9,4.0,30.26,SW,227,3.0,5.0,53,0.00,,,0.00,weatherlink.com 1.10,2013-01-25 19:30:00,
2013-01-25 14:45:00,18.8,4.0,30.25,South,178,3.0,6.0,52,0.00,,,0.00,weatherlink.com 1.10,2013-01-25 19:45:00,
2013-01-25 15:00:00,19.0,4.0,30.24,SE,146,1.0,3.0,53,0.00,,,0.00,weatherlink.com 1.10,2013-01-25 20:00:00,
2013-01-25 15:15:00,19.1,4.0,30.24,WSW,245,1.0,4.0,51,0.00,,,0.00,weatherlink.com 1.10,2013-01-25 20:15:00,
2013-01-25 15:30:00,19.3,4.0,30.24,WSW,242,3.0,3.0,51,0.00,,,0.00,weatherlink.com 1.10,2013-01-25 20:30:00,
2013-01-25 15:45:00,19.2,4.0,30.24,West,276,1.0,5.0,52,0.00,,,0.00,weatherlink.com 1.10,2013-01-25 20:45:00,
2013-01-25 16:00:00,19.4,5.0,30.23,SSW,204,1.0,4.0,53,0.00,,,0.00,weatherlink.com 1.10,2013-01-25 21:00:00,
2013-01-25 16:15:00,19.7,5.0,30.23,West,281,2.0,5.0,54,0.00,,,0.00,weatherlink.com 1.10,2013-01-25 21:15:00,
2013-01-25 16:30:00,19.6,4.0,30.23,South,169,2.0,5.0,52,0.00,,,0.00,weatherlink.com 1.10,2013-01-25 21:30:00,
2013-01-25 16:45:00,19.4,5.0,30.22,ESE,117,5.0,6.0,54,0.00,,,0.00,weatherlink.com 1.10,2013-01-25 21:45:00,
2013-01-25 17:00:00,19.4,4.0,30.20,ESE,118,0.0,4.0,51,0.00,,,0.00,weatherlink.com 1.10,2013-01-25 22:00:00,
2013-01-25 17:16:00,19.4,5.0,30.20,NE,56,1.0,3.0,53,0.00,,,0.00,weatherlink.com 1.10,2013-01-25 22:16:00,
2013-01-25 17:31:00,19.4,4.0,30.19,NNE,13,2.0,2.0,51,0.00,,,0.00,weatherlink.com 1.10,2013-01-25 22:31:00,
2013-01-25 18:01:00,19.5,4.0,30.18,NNE,19,1.0,4.0,51,0.00,,,0.00,weatherlink.com 1.10,2013-01-25 23:01:00,
2013-01-25 18:16:00,19.5,4.0,30.18,East,87,1.0,1.0,52,0.00,,,0.00,weatherlink.com 1.10,2013-01-25 23:16:00,
2013-01-25 18:31:00,19.7,5.0,30.18,NNE,27,2.0,3.0,52,0.00,,,0.00,weatherlink.com 1.10,2013-01-25 23:31:00,
2013-01-25 18:46:00,19.7,5.0,30.17,NE,51,1.0,3.0,52,0.00,,,0.00,weatherlink.com 1.10,2013-01-25 23:46:00,
2013-01-25 19:01:00,19.5,5.0,30.16,NE,51,2.0,4.0,53,0.00,,,0.00,weatherlink.com 1.10,2013-01-26 00:01:00,
2013-01-25 19:16:00,19.6,4.0,30.16,ENE,67,2.0,3.0,52,0.00,,,0.00,weatherlink.com 1.10,2013-01-26 00:16:00,
2013-01-25 19:31:00,19.5,5.0,30.15,East,80,4.0,5.0,53,0.00,,,0.00,weatherlink.com 1.10,2013-01-26 00:31:00,
2013-01-25 19:46:00,19.3,7.0,30.14,East,85,4.0,5.0,58,0.00,,,0.00,weatherlink.com 1.10,2013-01-26 00:46:00,
2013-01-25 20:01:00,19.0,6.0,30.14,East,81,4.0,5.0,56,0.00,,,0.00,weatherlink.com 1.10,2013-01-26 01:01:00,
2013-01-25 20:16:00,19.0,6.0,30.14,East,89,5.0,5.0,57,0.00,,,0.00,weatherlink.com 1.10,2013-01-26 01:16:00,
2013-01-25 20:31:00,19.0,8.0,30.14,ENE,78,4.0,5.0,62,0.00,,,0.00,weatherlink.com 1.10,2013-01-26 01:31:00,
2013-01-25 20:46:00,18.4,8.0,30.13,NE,50,4.0,4.0,64,0.00,,,0.00,weatherlink.com 1.10,2013-01-26 01:46:00,
2013-01-25 21:01:00,18.3,9.0,30.12,ENE,76,3.0,5.0,66,0.00,,,0.00,weatherlink.com 1.10,2013-01-26 02:01:00,
2013-01-25 21:16:00,18.1,10.0,30.12,NE,34,2.0,5.0,69,0.00,,,0.00,weatherlink.com 1.10,2013-01-26 02:16:00,
2013-01-25 21:31:00,17.8,11.0,30.12,ENE,60,3.0,4.0,73,0.00,,,0.00,weatherlink.com 1.10,2013-01-26 02:31:00,
2013-01-25 21:46:00,17.7,11.0,30.12,North,9,3.0,4.0,76,0.00,,,0.00,weatherlink.com 1.10,2013-01-26 02:46:00,
2013-01-25 22:02:00,17.6,12.0,30.12,ENE,70,4.0,8.0,78,0.00,,,0.00,weatherlink.com 1.10,2013-01-26 03:02:00,
2013-01-25 22:17:00,17.3,12.0,30.12,NNE,21,4.0,7.0,80,0.00,,,0.00,weatherlink.com 1.10,2013-01-26 03:17:00,
2013-01-25 22:32:00,17.0,12.0,30.12,NE,34,7.0,9.0,82,0.00,,,0.00,weatherlink.com 1.10,2013-01-26 03:32:00,
2013-01-25 22:47:00,16.7,13.0,30.12,NE,46,6.0,9.0,84,0.00,,,0.00,weatherlink.com 1.10,2013-01-26 03:47:00,
2013-01-25 23:02:00,16.4,13.0,30.11,NE,34,9.0,9.0,85,0.00,,,0.00,weatherlink.com 1.10,2013-01-26 04:02:00,
2013-01-25 23:17:00,16.4,13.0,30.11,NE,55,6.0,9.0,86,0.00,,,0.00,weatherlink.com 1.10,2013-01-26 04:17:00,
2013-01-25 23:32:00,16.2,13.0,30.11,NE,34,4.0,6.0,86,0.00,,,0.00,weatherlink.com 1.10,2013-01-26 04:32:00,
2013-01-25 23:47:00,16.2,13.0,30.11,NNW,347,9.0,11.0,85,0.00,,,0.00,weatherlink.com 1.10,2013-01-26 04:47:00,